KE7MWT Weather Reports


Display with metric or nautical units.
time (UTC)temp
F
wind
direction
speed
MPH
gust
MPH
rain 1hr
in
rain 24hr
in
rain mn
in
humidity
%
barometer
mb
20260506072848 61 254 0.0 0.0 0.00 0.00 0.00 43 1017.2
20260506072319 61 254 0.0 0.0 0.00 0.00 0.00 43 1017.1
20260506071826 61 254 0.0 0.0 0.00 0.00 0.00 43 1017.0
20260506071315 61 254 0.0 0.0 0.00 0.00 0.00 43 1017.0
20260506070843 61 254 0.0 0.0 0.00 0.00 0.00 44 1017.0
20260506070315 61 254 0.0 0.0 0.00 0.00 0.00 44 1017.0
20260506062330 63 254 0.0 0.0 0.00 0.00 0.00 38 1016.8
20260506061838 63 254 0.0 0.0 0.00 0.00 0.00 38 1016.7
20260506061328 63 254 0.0 0.0 0.00 0.00 0.00 37 1016.7
20260506060836 64 254 0.0 0.0 0.00 0.00 0.00 37 1016.6
20260506060325 64 254 0.0 0.0 0.00 0.00 0.00 36 1016.6
20260506051320 67 254 0.0 0.0 0.00 0.00 0.00 32 1016.3
20260506050827 67 254 0.0 0.0 0.00 0.00 0.00 31 1016.3
20260506050320 68 254 0.0 0.0 0.00 0.00 0.00 30 1016.3
20260506044830 69 254 0.0 0.0 0.00 0.00 0.00 28 1016.1
20260506044322 69 254 0.0 0.0 0.00 0.00 0.00 28 1016.0
20260506043829 69 254 0.0 0.0 0.00 0.00 0.00 26 1016.0
20260506043320 69 254 0.0 2.0 0.00 0.00 0.00 26 1016.0
20260506042848 70 254 0.0 3.0 0.00 0.00 0.00 25 1015.9
20260506042318 70 254 1.0 4.0 0.00 0.00 0.00 25 1015.9
20260506041826 70 254 2.0 7.0 0.00 0.00 0.00 25 1015.8
20260506041316 70 254 3.0 7.0 0.00 0.00 0.00 24 1015.8
20260506040827 70 257 2.0 7.0 0.00 0.00 0.00 24 1015.7
20260506040319 70 257 3.0 7.0 0.00 0.00 0.00 24 1015.7
20260506035826 70 248 1.0 7.0 0.00 0.00 0.00 24 1015.6
20260506035333 71 290 3.0 7.0 0.00 0.00 0.00 23 1015.6
20260506034820 71 265 3.0 7.0 0.00 0.00 0.00 23 1015.5
20260506034332 71 270 3.0 7.0 0.00 0.00 0.00 23 1015.5
20260506033819 71 281 2.0 8.0 0.00 0.00 0.00 23 1015.4
20260506033351 71 284 4.0 8.0 0.00 0.00 0.00 22 1015.3
20260506032816 71 273 4.0 11.0 0.00 0.00 0.00 22 1015.2
20260506032348 72 266 4.0 11.0 0.00 0.00 0.00 22 1015.2
20260506031814 72 246 4.0 11.0 0.00 0.00 0.00 22 1015.0
20260506031330 72 257 4.0 11.0 0.00 0.00 0.00 22 1015.0
20260506030817 72 242 4.0 9.0 0.00 0.00 0.00 22 1014.8
20260506030329 72 259 2.0 8.0 0.00 0.00 0.00 22 1014.8
20260506025816 72 259 5.0 8.0 0.00 0.00 0.00 22 1014.7
20260506025326 72 244 3.0 8.0 0.00 0.00 0.00 22 1014.6
20260506024814 72 251 3.0 8.0 0.00 0.00 0.00 22 1014.5
20260506024325 73 253 2.0 7.0 0.00 0.00 0.00 22 1014.5
20260506023832 73 253 3.0 7.0 0.00 0.00 0.00 22 1014.4
20260506023322 73 255 1.0 11.0 0.00 0.00 0.00 21 1014.3
20260506022833 73 255 4.0 11.0 0.00 0.00 0.00 21 1014.3
20260506022324 73 245 2.0 12.0 0.00 0.00 0.00 20 1014.2
20260506021830 74 259 6.0 12.0 0.00 0.00 0.00 20 1014.1
20260506021322 74 267 6.0 10.0 0.00 0.00 0.00 20 1014.0
20260506020827 74 241 4.0 12.0 0.00 0.00 0.00 21 1013.9
20260506020339 74 271 6.0 12.0 0.00 0.00 0.00 20 1013.9
20260506015845 75 240 5.0 12.0 0.00 0.00 0.00 19 1013.8
20260506015335 75 247 4.0 14.0 0.00 0.00 0.00 19 1013.8
20260506014842 75 258 8.0 14.0 0.00 0.00 0.00 19 1013.8
20260506014332 75 236 5.0 11.0 0.00 0.00 0.00 20 1013.8
20260506013820 76 193 4.0 11.0 0.00 0.00 0.00 20 1013.7
20260506013330 76 261 6.0 13.0 0.00 0.00 0.00 20 1013.7
20260506012837 77 248 4.0 13.0 0.00 0.00 0.00 20 1013.7
20260506012330 77 250 4.0 10.0 0.00 0.00 0.00 20 1013.6
20260506011818 78 284 5.0 14.0 0.00 0.00 0.00 19 1013.6
20260506011329 78 255 7.0 14.0 0.00 0.00 0.00 19 1013.5
20260506010816 78 222 4.0 14.0 0.00 0.00 0.00 21 1013.5
20260506010329 78 296 4.0 12.0 0.00 0.00 0.00 20 1013.4
20260506005816 79 251 6.0 12.0 0.00 0.00 0.00 19 1013.4
20260506005327 79 268 7.0 10.0 0.00 0.00 0.00 19 1013.4
20260506004813 79 250 5.0 14.0 0.00 0.00 0.00 20 1013.3
20260506004344 79 281 7.0 14.0 0.00 0.00 0.00 20 1013.4
20260506003831 79 280 6.0 12.0 0.00 0.00 0.00 19 1013.4
20260506003326 79 207 4.0 14.0 0.00 0.00 0.00 19 1013.3
20260506002814 79 322 6.0 14.0 0.00 0.00 0.00 19 1013.2
20260506002325 79 219 4.0 12.0 0.00 0.00 0.00 18 1013.1
20260506001852 79 246 5.0 16.0 0.00 0.00 0.00 18 1013.2
20260506001342 79 260 7.0 16.0 0.00 0.00 0.00 19 1013.2
20260506000830 79 267 5.0 16.0 0.00 0.00 0.00 19 1013.2
20260506000322 79 234 5.0 16.0 0.00 0.00 0.00 19 1013.1
20260505235828 79 231 8.0 14.0 0.00 0.00 0.00 18 1013.2
20260505235320 79 254 7.0 14.0 0.00 0.00 0.00 18 1013.2
20260505234848 80 256 6.0 15.0 0.00 0.00 0.00 19 1013.1
20260505234319 79 235 5.0 15.0 0.00 0.00 0.00 19 1013.0
20260505233828 79 231 7.0 14.0 0.00 0.00 0.00 20 1013.1
20260505233323 80 258 8.0 17.0 0.00 0.00 0.00 19 1013.1
20260505232832 80 305 8.0 17.0 0.00 0.00 0.00 18 1013.0
20260505232324 80 217 6.0 16.0 0.00 0.00 0.00 19 1013.0
20260505231813 80 281 6.0 16.0 0.00 0.00 0.00 19 1013.0
20260505231325 80 256 4.0 16.0 0.00 0.00 0.00 19 1012.9
20260505230814 80 239 7.0 18.0 0.00 0.00 0.00 19 1013.1
20260505230325 80 211 4.0 16.0 0.00 0.00 0.00 20 1013.0
20260505225831 80 247 8.0 16.0 0.00 0.00 0.00 20 1013.1
20260505225323 81 227 5.0 12.0 0.00 0.00 0.00 20 1013.1
20260505224827 81 269 5.0 14.0 0.00 0.00 0.00 19 1013.1
20260505224322 80 286 5.0 15.0 0.00 0.00 0.00 19 1013.1
20260505223849 80 207 6.0 15.0 0.00 0.00 0.00 20 1013.2
20260505223318 80 224 6.0 16.0 0.00 0.00 0.00 20 1013.2
20260505222823 80 167 6.0 16.0 0.00 0.00 0.00 20 1013.3
20260505222314 80 234 5.0 14.0 0.00 0.00 0.00 20 1013.3
20260505221823 80 269 7.0 16.0 0.00 0.00 0.00 20 1013.4
20260505221335 80 272 8.0 16.0 0.00 0.00 0.00 20 1013.5
20260505220823 79 236 7.0 13.0 0.00 0.00 0.00 20 1013.5
20260505220314 79 219 3.0 16.0 0.00 0.00 0.00 20 1013.4
20260505215822 80 192 7.0 16.0 0.00 0.00 0.00 20 1013.6
20260505215313 80 175 7.0 13.0 0.00 0.00 0.00 21 1013.5
20260505214824 80 272 6.0 18.0 0.00 0.00 0.00 22 1013.6
20260505214335 80 241 11.0 18.0 0.00 0.00 0.00 22 1013.8
20260505213841 80 188 5.0 18.0 0.00 0.00 0.00 22 1013.7
20260505213330 80 270 7.0 18.0 0.00 0.00 0.00 22 1013.8
20260505212817 81 221 8.0 12.0 0.00 0.00 0.00 22 1013.8
20260505212327 81 221 6.0 13.0 0.00 0.00 0.00 22 1013.8
20260505211815 81 188 8.0 15.0 0.00 0.00 0.00 22 1013.9
20260505211326 81 279 8.0 16.0 0.00 0.00 0.00 21 1014.0
20260505210834 81 236 6.0 16.0 0.00 0.00 0.00 24 1014.0
20260505210324 80 208 7.0 12.0 0.00 0.00 0.00 23 1014.2
20260505205852 80 190 4.0 17.0 0.00 0.00 0.00 25 1014.1
20260505205322 79 194 7.0 17.0 0.00 0.00 0.00 25 1014.2
20260505204829 79 223 7.0 12.0 0.00 0.00 0.00 25 1014.2
20260505204324 79 234 5.0 15.0 0.00 0.00 0.00 25 1014.2
20260505203831 79 253 8.0 15.0 0.00 0.00 0.00 26 1014.3
20260505203322 78 165 5.0 16.0 0.00 0.00 0.00 28 1014.2
20260505202829 77 178 5.0 16.0 0.00 0.00 0.00 29 1014.4
20260505202340 77 175 4.0 16.0 0.00 0.00 0.00 28 1014.4
20260505201827 78 228 6.0 13.0 0.00 0.00 0.00 28 1014.4
20260505201338 78 212 3.0 13.0 0.00 0.00 0.00 30 1014.5
20260505200824 77 219 7.0 13.0 0.00 0.00 0.00 29 1014.6
20260505200315 77 238 3.0 12.0 0.00 0.00 0.00 31 1014.6
20260505195823 76 222 5.0 12.0 0.00 0.00 0.00 32 1014.5
20260505195318 76 183 5.0 10.0 0.00 0.00 0.00 32 1014.7
20260505194825 76 221 6.0 10.0 0.00 0.00 0.00 32 1014.8
20260505194316 77 227 3.0 12.0 0.00 0.00 0.00 32 1014.8
20260505193843 77 198 3.0 12.0 0.00 0.00 0.00 33 1014.8
20260505193313 77 201 4.0 10.0 0.00 0.00 0.00 32 1014.8
20260505192821 77 220 5.0 10.0 0.00 0.00 0.00 31 1014.8
20260505192332 77 186 1.0 11.0 0.00 0.00 0.00 31 1014.8
20260505191818 78 184 5.0 11.0 0.00 0.00 0.00 32 1014.9
20260505191329 77 230 4.0 10.0 0.00 0.00 0.00 31 1015.0
20260505190816 77 182 3.0 10.0 0.00 0.00 0.00 32 1015.0
20260505190328 76 169 3.0 9.0 0.00 0.00 0.00 34 1015.1
20260505185819 76 174 4.0 12.0 0.00 0.00 0.00 35 1015.2
20260505185330 75 181 7.0 15.0 0.00 0.00 0.00 34 1015.3
20260505184817 74 227 7.0 11.0 0.00 0.00 0.00 34 1015.3
20260505184348 74 199 4.0 14.0 0.00 0.00 0.00 34 1015.3
20260505183813 74 206 4.0 14.0 0.00 0.00 0.00 35 1015.4
20260505183324 74 202 4.0 11.0 0.00 0.00 0.00 36 1015.4
20260505182831 74 237 6.0 11.0 0.00 0.00 0.00 35 1015.4
20260505182321 75 225 5.0 9.0 0.00 0.00 0.00 34 1015.4
20260505181829 75 217 4.0 8.0 0.00 0.00 0.00 35 1015.4
20260505181318 74 202 4.0 7.0 0.00 0.00 0.00 38 1015.4
20260505180845 74 189 3.0 12.0 0.00 0.00 0.00 38 1015.4
20260505180334 73 163 6.0 12.0 0.00 0.00 0.00 38 1015.4
20260505175840 73 175 5.0 10.0 0.00 0.00 0.00 39 1015.4
20260505175314 73 234 4.0 11.0 0.00 0.00 0.00 38 1015.5
20260505174821 73 200 8.0 11.0 0.00 0.00 0.00 38 1015.5
20260505174332 73 214 4.0 11.0 0.00 0.00 0.00 40 1015.5
20260505173820 72 213 3.0 10.0 0.00 0.00 0.00 41 1015.5
20260505173331 72 203 5.0 10.0 0.00 0.00 0.00 41 1015.5
20260505172819 72 215 5.0 10.0 0.00 0.00 0.00 43 1015.6
20260505172322 72 187 2.0 7.0 0.00 0.00 0.00 45 1015.5
20260505171829 72 201 3.0 7.0 0.00 0.00 0.00 46 1015.5
20260505171320 71 182 3.0 10.0 0.00 0.00 0.00 46 1015.5
20260505170827 71 190 5.0 12.0 0.00 0.00 0.00 46 1015.5
20260505170323 71 173 5.0 13.0 0.00 0.00 0.00 47 1015.5
20260505165850 71 223 4.0 8.0 0.00 0.00 0.00 47 1015.6
20260505165320 71 221 3.0 6.0 0.00 0.00 0.00 47 1015.5
20260505164848 70 200 3.0 7.0 0.00 0.00 0.00 48 1015.6
20260505164318 70 199 2.0 8.0 0.00 0.00 0.00 48 1015.5
20260505163826 70 208 4.0 8.0 0.00 0.00 0.00 48 1015.6
20260505163317 70 212 2.0 8.0 0.00 0.00 0.00 49 1015.5
20260505162825 70 236 4.0 9.0 0.00 0.00 0.00 49 1015.5
20260505162317 69 252 4.0 6.0 0.00 0.00 0.00 49 1015.6
20260505161822 69 190 3.0 9.0 0.00 0.00 0.00 49 1015.6
20260505161317 69 265 4.0 12.0 0.00 0.00 0.00 49 1015.7
20260505160825 69 277 5.0 12.0 0.00 0.00 0.00 49 1015.6
20260505160316 69 195 5.0 9.0 0.00 0.00 0.00 51 1015.7
20260505153348 69 217 1.0 4.0 0.00 0.00 0.00 55 1015.4
20260505152814 68 217 2.0 6.0 0.00 0.00 0.00 56 1015.3
20260505152325 68 221 2.0 6.0 0.00 0.00 0.00 58 1015.4
20260505151817 68 173 1.0 6.0 0.00 0.00 0.00 59 1015.5
20260505151328 68 173 3.0 6.0 0.00 0.00 0.00 60 1015.4
20260505150815 67 178 3.0 6.0 0.00 0.00 0.00 62 1015.4
20260505150327 67 92 0.0 2.0 0.00 0.00 0.00 65 1015.4
20260505140319 65 89 0.0 0.0 0.00 0.00 0.00 72 1015.4
20260505124827 64 89 0.0 1.0 0.00 0.00 0.00 71 1014.8
20260505124319 64 89 0.0 1.0 0.00 0.00 0.00 71 1014.7
20260505123831 64 89 0.0 0.0 0.00 0.00 0.00 72 1014.7
20260505123344 64 89 0.0 0.0 0.00 0.00 0.00 72 1014.6
20260505122830 64 89 0.0 1.0 0.00 0.00 0.00 72 1014.5
20260505122321 64 89 0.0 2.0 0.00 0.00 0.00 72 1014.5
20260505121849 64 89 0.0 3.0 0.00 0.00 0.00 72 1014.5
20260505121320 64 89 0.0 3.0 0.00 0.00 0.00 72 1014.4
20260505120828 64 89 0.0 1.0 0.00 0.00 0.00 72 1014.5
20260505120339 63 89 0.0 2.0 0.00 0.00 0.00 72 1014.5
20260505115827 63 89 0.0 3.0 0.00 0.00 0.00 72 1014.4
20260505115340 63 90 0.0 2.0 0.00 0.00 0.00 72 1014.4
20260505114825 63 90 0.0 2.0 0.00 0.00 0.00 71 1014.5
20260505114319 63 90 0.0 2.0 0.00 0.00 0.00 71 1014.4
20260505113828 63 90 0.0 2.0 0.00 0.00 0.00 71 1014.4
20260505113320 64 90 0.0 3.0 0.00 0.00 0.00 71 1014.3
20260505112827 64 90 1.0 4.0 0.00 0.00 0.00 71 1014.3
20260505112319 64 90 1.0 3.0 0.00 0.00 0.00 71 1014.4
20260505111827 64 90 1.0 3.0 0.00 0.00 0.00 70 1014.4
20260505111319 64 90 1.0 3.0 0.00 0.00 0.00 69 1014.4
20260505110827 64 90 0.0 3.0 0.00 0.00 0.00 69 1014.5
20260505110321 64 90 1.0 3.0 0.00 0.00 0.00 69 1014.4
20260505101827 65 109 1.0 4.0 0.00 0.00 0.00 66 1015.3
20260505101339 65 174 0.0 2.0 0.00 0.00 0.00 66 1015.3
20260505100825 65 175 0.0 3.0 0.00 0.00 0.00 67 1015.2
20260505100321 65 175 1.0 3.0 0.00 0.00 0.00 67 1015.3
20260505095828 65 187 0.0 3.0 0.00 0.00 0.00 68 1015.3
20260505095320 64 187 1.0 3.0 0.00 0.00 0.00 67 1015.5
20260505094828 64 201 0.0 2.0 0.00 0.00 0.00 67 1015.5
20260505094320 64 201 0.0 1.0 0.00 0.00 0.00 67 1015.5
20260505093829 64 201 0.0 1.0 0.00 0.00 0.00 67 1015.4
20260505093320 64 201 0.0 2.0 0.00 0.00 0.00 67 1015.4
20260505092849 64 201 0.0 2.0 0.00 0.00 0.00 68 1015.4
20260505092339 64 201 1.0 2.0 0.00 0.00 0.00 69 1015.5
20260505091846 63 202 0.0 2.0 0.00 0.00 0.00 70 1015.5
20260505091316 63 202 0.0 2.0 0.00 0.00 0.00 70 1015.5
20260505090824 63 202 0.0 3.0 0.00 0.00 0.00 71 1015.6
20260505090320 63 202 1.0 3.0 0.00 0.00 0.00 70 1015.6
20260505085848 63 204 0.0 4.0 0.00 0.00 0.00 71 1015.6
20260505085319 63 193 1.0 7.0 0.00 0.00 0.00 70 1015.6
20260505084825 64 194 2.0 7.0 0.00 0.00 0.00 69 1015.8
20260505084314 64 167 2.0 11.0 0.00 0.00 0.00 68 1016.0
20260505083822 65 188 1.0 11.0 0.00 0.00 0.00 66 1016.0
20260505083313 65 155 0.0 3.0 0.00 0.00 0.00 64 1016.1
20260505082821 65 159 0.0 5.0 0.00 0.00 0.00 62 1016.3
20260505082313 66 159 1.0 5.0 0.00 0.00 0.00 61 1016.5
20260505081841 66 182 2.0 5.0 0.00 0.00 0.00 59 1016.5
20260505081332 67 182 0.0 3.0 0.00 0.00 0.00 57 1016.5
20260505080824 67 182 1.0 8.0 0.00 0.00 0.00 54 1016.3
20260505080335 67 171 3.0 8.0 0.00 0.00 0.00 52 1016.5
20260505075841 68 177 3.0 12.0 0.00 0.00 0.00 50 1016.5
20260505075332 68 175 3.0 12.0 0.00 0.00 0.00 48 1016.3
20260505074821 69 195 1.0 9.0 0.00 0.00 0.00 45 1016.3
20260505074332 69 172 3.0 10.0 0.00 0.00 0.00 43 1016.1
20260505073841 69 180 3.0 14.0 0.00 0.00 0.00 42 1016.1
20260505073330 69 186 6.0 14.0 0.00 0.00 0.00 41 1016.1